SCP
-0 -0 -0 -0 0 -0 -0 -0 -0 -0 -0 -0 -0 -0 -0 -0 -0 -0 -0 -0 -0 -0 -0 -0 -0 -0 0 -0 -0 -0 -0 -0 -0 0 0 -0 -0 0 0 0 -0 -0 0
-0 -0 -0 -0 0 -0 -0 -0 -0 -0 -0 -0 -0 -0 0 0 0 0 0 0 0 0 0 0 0 0 0 0 0 0 0 0 0 0 -0 0 0 0 -0 -0 -0 -0 0
-0 -0 -0 -0 -0 -0 -0 -0 -0 -0 -0 -0 -0 -0 0 0 0 0 0 0 0 0 0 0 0 0 0 0 -0 -0 -0 0 -0 0 0 -0 0 0 0 -0 -0 -0 -0
0 0 -0 -0 0 0 0 0 0 0 0 0 0 0 0 0 0 0 0 0 0 0 0 0 0 0 0 0 0 -0 -0 -0 -0 0 0 -0 -0 0 -0 -0 -0 -0 -0
0 0 -0 -0 0 0 0 0 0 0 0 0 0 0 0 0 0 0 0 0 0 0 0 0 0 0 0 0 -0 -0 -0 -0 -0 -0 -0 -0 -0 0 0 -0 -0 -0 -0
0 -0 -0 -0 -0 -0 -0 0 0 0 0 0 0 0 0 0 0 0 0 0 0 0 0 0 0 0 0 0 0 -0 -0 -0 -0 -0 -0 0 -0 0 -0 -0 -0 -0 -0
-0 -0 -0 -0 -0 -0 0 0 0 0 0 0 0 0 0 0 0 0 0 0 0 0 0 0 0 0 0 0 0 -0 -0 -0 -0 -0 -0 0 0 0 0 -0 -0 -0 0
-0 -0 -0 -0 -0 -0 -0 0 0 -0 0 0 0 0 0 0 0 0 0 0 0 0 0 0 0 0 0 0 0 0 -0 -0 -0 -0 0 0 0 0 0 -0 0 0 0
0 -0 0 -0 -0 -0 -0 0 0 0 0 0 0 0 0 0 0 0 0 0 0 0 0 0 0 0 0 0 0 0 0 0 -0 -0 0 0 0 0 0 0 0 0 0
-0 -0 -0 0 -0 0 -0 0 0 0 0 0 0 0 0 0 0 0 0 0 0 0 0 0 0 0 0 0 0 0 0 0 -0 -0 0 0 0 0 0 0 0 0 0
-0 0 0 0 0 0 0 0 0 0 0 0 0 0 0 0 0 0 0 0 0 0 0 0 0 0 0 0 0 0 0 0 0 0 0 0 0 0 0 0 0 0 0
-0 0 0 0 0 0 0 0 0 0 0 0 0 0 0 0 0 0 0 0 0 0 0 0 0 0 0 0 0 0 0 0 0 0 0 0 0 0 0 0 0 0 0
0 -0 -0 0 0 -0 0 0 0 0 0 0 0 0 1 1 1 1 1 1 1 0 0 1 1 1 1 1 0 0 0 0 0 0 0 0 0 -0 0 0 0 0 0
-0 -0 -0 0 -0 -0 -0 0 0 0 0 0 0 0 1 1 1 1 1 0 0 0 0 0 1 1 1 1 1 1 0 0 0 0 0 0 0 0 -0 -0 0 0 0
-0 -0 0 -0 -0 0 0 0 0 0 0 0 0 0 0 0 0 0 0 0 0 0 0 0 0 1 1 1 1 1 1 0 0 0 0 0 0 0 0 -0 -0 0 0
-0 0 0 0 0 0 0 0 0 0 0 0 0 0 0 0 0 0 0 0 0 0 0 0 0 0 0 0 0 0 0 0 0 0 0 0 0 0 0 0 0 0 0
0 0 0 0 0 0 0 0 0 0 0 0 0 0 0 0 0 0 0 0 0 0 0 0 0 0 0 0 0 0 0 0 0 0 0 0 0 0 0 1 0 0 1
0 0 0 0 0 0 0 0 0 0 0 0 0 0 0 0 0 0 0 0 0 0 0 0 0 0 0 0 0 0 0 0 0 0 0 0 0 0 1 2 2 1 1
0 0 0 0 0 0 0 0 0 0 0 0 0 0 0 0 0 0 0 0 0 0 0 0 0 0 0 0 0 0 0 0 0 0 1 1 1 1 1 1 3 3 3
0 0 0 0 0 1 0 0 0 0 0 0 0 0 0 0 0 0 0 0 0 0 0 0 0 0 0 0 0 0 0 0 0 0 1 1 2 2 3 3 2 3 4
0 0 0 0 0 1 0 0 0 0 0 0 0 0 0 0 0 0 0 0 0 0 0 0 0 0 0 0 0 0 0 0 0 0 2 1 2 2 3 3 4 4 3
0 0 0 1 1 1 1 1 1 0 0 0 0 0 0 0 0 0 0 0 0 0 0 0 0 0 0 0 0 0 0 0 0 0 1 2 2 2 2 2 4 3 2
0 0 1 1 1 2 2 2 1 1 1 0 0 0 0 0 0 0 0 0 0 0 0 0 0 0 0 0 0 0 0 0 0 1 1 2 2 2 2 2 3 2 2
0 0 1 0 0 0 0 0 0 0 0 0 0 0 0 0 0 0 0 0 0 0 0 1 0 0 0 0 0 0 0 0 0 0 1 1 2 2 3 1 2 2 2
0 0 0 0 0 0 0 0 0 0 0 0 0 0 0 0 0 0 0 0 0 0 0 0 0 1 1 0 0 0 0 0 0 0 0 1 1 2 1 2 3 3 1
0 0 0 0 0 0 0 0 0 0 0 0 0 0 0 0 0 0 0 0 0 0 0 0 0 0 1 1 0 0 0 0 0 0 0 0 0 0 0 1 1 1 1
Wind_Speed_500mb
17 18 24 25 26 25 25 23 20 18 18 19 18 18 18 18 18 19 19 20 21 23 23 22 22 23 26 28 29 30 31 33 33 34 33 33 32 33 32 29 35 20 29
19 18 22 23 25 25 24 23 20 18 17 16 15 14 14 14 14 13 14 15 15 16 15 14 13 13 15 16 17 17 20 22 24 25 24 29 25 25 28 30 32 23 29
17 18 20 22 22 23 23 22 20 18 15 12 11 10 9 8 8 8 8 8 9 9 8 7 6 6 5 5 7 9 11 12 14 16 21 9 5 17 20 21 23 22 24
12 16 16 20 19 19 19 18 17 15 13 8 4 4 4 4 3 3 4 5 5 5 4 4 4 4 4 4 4 4 4 4 5 5 18 5 3 7 11 13 15 17 18
12 12 19 22 20 17 15 13 11 8 6 5 3 1 3 4 5 4 4 5 6 7 7 7 7 8 9 9 10 10 11 11 10 9 7 6 6 13 2 4 6 8 9
14 14 16 20 19 17 14 12 11 8 5 4 4 4 4 5 6 6 7 8 8 7 8 9 9 10 11 12 12 13 12 13 11 9 15 14 12 21 13 7 3 1 2
17 15 12 18 16 15 14 14 14 14 14 12 11 10 9 10 10 11 11 12 11 10 12 13 12 13 14 15 16 17 16 16 14 13 17 18 15 24 20 18 13 9 6
15 16 12 16 14 14 12 11 10 11 14 14 15 15 17 18 19 19 19 20 18 16 17 18 19 17 17 19 20 21 21 20 17 18 20 18 28 28 25 24 22 18 13
16 13 12 7 8 8 10 10 10 14 19 19 21 22 23 23 23 24 24 24 24 23 23 22 21 20 20 21 22 23 24 23 20 18 23 20 35 28 29 27 27 24 19
17 15 11 11 7 7 2 6 8 13 17 19 24 25 25 26 26 28 26 26 29 27 27 24 21 22 23 26 26 27 28 28 23 22 24 21 32 26 28 31 26 28 28
14 12 11 10 7 7 4 7 8 12 15 18 20 22 25 18 21 24 28 30 31 31 27 24 25 28 31 31 30 33 32 24 24 25 22 32 26 22 22 26 29 29 29
9 8 8 8 8 8 7 10 10 15 10 16 16 21 19 21 23 27 29 29 31 28 26 29 31 31 33 24 29 32 18 19 23 24 21 38 24 26 25 27 30 31 34
9 14 15 18 16 13 11 12 12 13 14 15 20 20 19 18 21 21 20 19 23 27 22 23 23 21 20 27 27 30 29 23 21 24 25 30 31 30 28 29 33 31 31
10 15 14 13 17 20 15 13 16 16 17 17 21 25 23 16 22 22 19 23 29 29 35 29 27 24 31 32 41 32 30 26 25 26 27 36 31 31 31 30 31 28 28
9 10 15 21 23 23 28 19 16 17 19 21 21 25 21 18 21 21 24 25 27 26 26 27 26 29 29 27 33 30 28 28 27 26 24 36 31 30 30 30 30 31 23
10 11 17 19 21 14 19 22 19 20 18 20 19 22 26 24 27 23 25 26 26 25 25 25 25 25 26 24 27 25 25 25 25 26 24 25 35 30 30 29 30 34 28
12 17 13 11 11 8 7 12 14 17 16 16 17 25 36 30 28 29 28 30 28 27 30 26 24 26 24 25 24 22 22 23 23 25 27 26 27 34 38 32 28 33 34
11 7 5 3 5 3 10 15 20 23 23 20 20 21 31 21 24 24 33 31 28 27 27 27 26 26 27 25 26 25 25 23 24 26 25 25 24 24 28 40 36 32 33
5 10 10 11 9 15 22 22 27 29 26 26 27 27 26 29 25 28 32 32 27 30 32 30 30 27 28 25 27 27 24 24 25 24 23 20 20 20 22 35 33 33 35
8 18 20 17 24 27 29 31 30 31 34 34 30 27 29 31 36 30 36 34 32 33 34 33 38 35 28 23 26 25 20 19 19 21 21 15 16 12 14 16 16 27 32
16 21 26 26 30 35 34 35 38 39 40 38 35 34 33 31 34 60 38 39 37 38 36 32 32 33 34 35 36 40 43 33 15 13 17 17 12 7 7 29 23 20 24
23 25 29 28 30 33 34 38 51 52 47 46 44 41 35 33 49 62 44 45 43 43 38 35 32 37 40 38 37 41 45 40 31 32 19 15 11 14 17 16 18 21 22
27 28 31 32 35 40 49 47 43 45 49 49 49 43 45 53 51 55 59 60 48 46 56 48 44 40 45 44 37 39 40 45 44 34 24 13 11 8 15 22 13 13 20
29 30 31 38 45 38 51 47 42 40 39 38 44 44 47 52 65 57 51 48 47 48 53 55 54 52 44 45 39 37 37 43 35 41 30 31 17 4 11 14 17 17 20
23 19 23 37 44 48 46 46 42 36 40 45 50 55 57 70 60 59 57 52 50 52 54 50 50 52 58 50 49 42 37 35 39 54 49 34 25 28 9 16 23 19 15
17 19 21 33 39 46 47 44 47 53 59 59 66 68 66 60 55 48 46 48 46 46 47 50 52 56 52 58 56 42 40 36 30 40 49 48 34 50 16 16 21 22 24
Wind_Direction_500mb
143 158 142 146 142 138 137 139 138 132 125 119 116 113 107 100 96 93 91 88 87 91 92 94 95 93 87 77 73 73 74 75 74 75 76 76 78 81 81 80 72 71 75
156 161 151 150 148 143 142 141 140 137 133 128 122 111 104 102 99 96 95 97 97 96 96 97 97 94 87 81 81 82 77 75 75 75 75 61 65 70 75 79 91 87 79
141 162 162 154 155 152 148 145 143 144 143 138 128 119 109 100 98 93 86 81 81 80 82 82 82 82 85 81 77 80 82 81 80 80 69 84 40 65 72 74 80 83 84
134 149 165 164 161 163 160 154 149 149 146 137 115 82 72 67 57 54 41 25 29 38 35 21 360 346 336 322 322 331 349 9 33 66 45 334 332 53 68 70 67 73 76
106 135 192 171 165 169 171 169 162 156 149 146 120 66 354 342 339 346 344 339 338 343 336 324 323 319 318 318 314 314 314 313 312 312 296 264 232 272 269 85 77 65 65
109 124 164 174 173 174 174 176 178 180 202 240 260 271 282 289 291 295 298 297 306 320 308 301 300 297 295 291 291 292 291 292 293 327 289 273 270 248 251 235 215 310 21
100 105 148 165 177 182 189 191 201 204 208 220 229 245 255 268 271 268 263 267 271 276 277 276 273 272 275 279 280 285 287 287 289 275 272 273 260 258 255 248 241 237 249
103 103 112 158 173 189 196 220 243 270 281 284 286 288 291 289 284 277 268 263 264 267 268 271 275 275 277 279 285 286 285 288 289 292 281 277 265 259 250 246 245 248 254
98 97 108 123 156 197 223 220 238 252 258 265 270 269 270 273 274 274 273 273 274 272 273 274 273 273 276 280 277 277 281 280 277 272 274 271 266 263 252 245 241 247 255
100 96 88 106 154 123 285 272 282 290 289 289 285 283 283 283 281 276 275 277 269 273 276 272 269 272 277 281 282 281 286 281 275 269 280 267 261 264 246 239 235 241 250
95 98 92 117 103 104 106 2 343 333 316 308 306 303 301 298 276 281 280 272 278 278 273 270 273 278 280 280 282 283 278 280 266 268 271 267 264 254 239 234 234 240 246
82 68 85 86 74 83 46 10 7 353 331 329 317 314 310 289 291 287 278 280 276 274 274 279 281 281 276 280 280 295 284 271 266 264 279 269 269 248 244 242 243 246 249
81 69 72 78 68 67 35 23 1 357 351 345 339 332 319 307 294 296 286 283 275 278 282 285 286 285 271 257 264 266 260 267 271 273 270 276 270 263 261 256 249 253 257
82 72 75 47 36 39 39 35 29 31 27 16 13 17 5 347 334 332 314 302 301 290 284 282 282 265 267 267 275 261 264 268 270 268 272 274 268 266 262 262 256 250 256
100 91 63 51 43 58 49 48 52 36 19 11 4 358 358 354 344 341 329 328 317 312 307 301 285 282 263 267 260 264 264 263 267 273 270 276 265 263 265 268 253 246 252
127 104 82 58 40 41 39 28 3 351 350 354 349 340 337 335 333 336 329 320 317 313 306 303 289 284 278 266 262 259 264 260 268 267 270 267 281 266 266 267 257 246 243
130 118 74 51 49 33 329 326 338 330 322 328 335 336 333 332 332 336 323 321 314 312 313 309 304 299 289 282 273 273 273 268 268 267 274 273 268 283 262 262 255 239 238
127 135 172 50 261 282 309 298 305 308 315 310 313 324 326 328 325 335 321 315 316 318 314 306 301 296 289 288 280 279 268 275 273 274 278 266 266 256 277 253 246 243 239
180 205 235 246 279 279 282 291 296 297 300 301 301 304 306 316 317 316 316 305 313 315 309 306 299 295 288 292 290 284 277 281 275 271 261 268 266 251 237 266 239 236 238
245 240 251 272 276 279 292 297 300 301 301 294 291 293 300 304 306 305 306 299 292 298 301 301 291 287 289 292 281 280 295 295 269 262 253 251 245 229 217 220 245 230 226
269 266 268 281 283 287 292 289 291 291 288 289 288 294 299 295 300 302 302 295 291 290 289 287 294 290 289 286 283 279 280 294 276 250 222 230 211 202 186 216 180 195 205
273 279 279 287 293 292 291 284 288 289 288 286 289 293 304 304 300 295 295 294 290 286 287 282 280 282 282 288 281 280 276 269 253 248 233 231 202 203 208 207 197 196 178
279 286 287 287 292 294 293 297 296 292 293 289 288 288 289 290 301 297 295 293 289 284 283 275 273 274 279 281 279 272 274 260 265 250 235 204 210 216 218 218 196 191 182
285 284 283 287 290 303 298 302 296 307 303 292 300 295 294 301 296 297 296 293 289 283 277 274 266 266 265 271 272 265 263 260 268 251 231 229 233 232 182 196 198 201 188
280 289 296 296 299 300 303 304 306 306 301 301 298 298 296 301 295 291 290 288 285 281 277 271 269 260 257 262 267 264 257 259 249 249 247 242 226 239 233 200 213 207 180
295 299 304 301 303 300 298 302 303 302 304 303 301 301 300 296 294 295 293 289 286 282 280 275 271 264 256 248 253 253 256 254 255 237 244 243 239 256 261 230 199 212 209
Wind_Speed_850mb
17 18 24 25 26 25 25 23 20 18 18 19 18 18 18 18 18 19 19 20 21 23 23 22 22 23 26 28 29 30 31 33 33 34 33 33 32 33 32 29 35 20 29
19 18 22 23 25 25 24 23 20 18 17 16 15 14 14 14 14 13 14 15 15 16 15 14 13 13 15 16 17 17 20 22 24 25 24 29 25 25 28 30 32 23 29
17 18 20 22 22 23 23 22 20 18 15 12 11 10 9 8 8 8 8 8 9 9 8 7 6 6 5 5 7 9 11 12 14 16 21 9 5 17 20 21 23 22 24
12 16 16 20 19 19 19 18 17 15 13 8 4 4 4 4 3 3 4 5 5 5 4 4 4 4 4 4 4 4 4 4 5 5 18 5 3 7 11 13 15 17 18
12 12 19 22 20 17 15 13 11 8 6 5 3 1 3 4 5 4 4 5 6 7 7 7 7 8 9 9 10 10 11 11 10 9 7 6 6 13 2 4 6 8 9
14 14 16 20 19 17 14 12 11 8 5 4 4 4 4 5 6 6 7 8 8 7 8 9 9 10 11 12 12 13 12 13 11 9 15 14 12 21 13 7 3 1 2
17 15 12 18 16 15 14 14 14 14 14 12 11 10 9 10 10 11 11 12 11 10 12 13 12 13 14 15 16 17 16 16 14 13 17 18 15 24 20 18 13 9 6
15 16 12 16 14 14 12 11 10 11 14 14 15 15 17 18 19 19 19 20 18 16 17 18 19 17 17 19 20 21 21 20 17 18 20 18 28 28 25 24 22 18 13
16 13 12 7 8 8 10 10 10 14 19 19 21 22 23 23 23 24 24 24 24 23 23 22 21 20 20 21 22 23 24 23 20 18 23 20 35 28 29 27 27 24 19
17 15 11 11 7 7 2 6 8 13 17 19 24 25 25 26 26 28 26 26 29 27 27 24 21 22 23 26 26 27 28 28 23 22 24 21 32 26 28 31 26 28 28
14 12 11 10 7 7 4 7 8 12 15 18 20 22 25 18 21 24 28 30 31 31 27 24 25 28 31 31 30 33 32 24 24 25 22 32 26 22 22 26 29 29 29
9 8 8 8 8 8 7 10 10 15 10 16 16 21 19 21 23 27 29 29 31 28 26 29 31 31 33 24 29 32 18 19 23 24 21 38 24 26 25 27 30 31 34
9 14 15 18 16 13 11 12 12 13 14 15 20 20 19 18 21 21 20 19 23 27 22 23 23 21 20 27 27 30 29 23 21 24 25 30 31 30 28 29 33 31 31
10 15 14 13 17 20 15 13 16 16 17 17 21 25 23 16 22 22 19 23 29 29 35 29 27 24 31 32 41 32 30 26 25 26 27 36 31 31 31 30 31 28 28
9 10 15 21 23 23 28 19 16 17 19 21 21 25 21 18 21 21 24 25 27 26 26 27 26 29 29 27 33 30 28 28 27 26 24 36 31 30 30 30 30 31 23
10 11 17 19 21 14 19 22 19 20 18 20 19 22 26 24 27 23 25 26 26 25 25 25 25 25 26 24 27 25 25 25 25 26 24 25 35 30 30 29 30 34 28
12 17 13 11 11 8 7 12 14 17 16 16 17 25 36 30 28 29 28 30 28 27 30 26 24 26 24 25 24 22 22 23 23 25 27 26 27 34 38 32 28 33 34
11 7 5 3 5 3 10 15 20 23 23 20 20 21 31 21 24 24 33 31 28 27 27 27 26 26 27 25 26 25 25 23 24 26 25 25 24 24 28 40 36 32 33
5 10 10 11 9 15 22 22 27 29 26 26 27 27 26 29 25 28 32 32 27 30 32 30 30 27 28 25 27 27 24 24 25 24 23 20 20 20 22 35 33 33 35
8 18 20 17 24 27 29 31 30 31 34 34 30 27 29 31 36 30 36 34 32 33 34 33 38 35 28 23 26 25 20 19 19 21 21 15 16 12 14 16 16 27 32
16 21 26 26 30 35 34 35 38 39 40 38 35 34 33 31 34 60 38 39 37 38 36 32 32 33 34 35 36 40 43 33 15 13 17 17 12 7 7 29 23 20 24
23 25 29 28 30 33 34 38 51 52 47 46 44 41 35 33 49 62 44 45 43 43 38 35 32 37 40 38 37 41 45 40 31 32 19 15 11 14 17 16 18 21 22
27 28 31 32 35 40 49 47 43 45 49 49 49 43 45 53 51 55 59 60 48 46 56 48 44 40 45 44 37 39 40 45 44 34 24 13 11 8 15 22 13 13 20
29 30 31 38 45 38 51 47 42 40 39 38 44 44 47 52 65 57 51 48 47 48 53 55 54 52 44 45 39 37 37 43 35 41 30 31 17 4 11 14 17 17 20
23 19 23 37 44 48 46 46 42 36 40 45 50 55 57 70 60 59 57 52 50 52 54 50 50 52 58 50 49 42 37 35 39 54 49 34 25 28 9 16 23 19 15
17 19 21 33 39 46 47 44 47 53 59 59 66 68 66 60 55 48 46 48 46 46 47 50 52 56 52 58 56 42 40 36 30 40 49 48 34 50 16 16 21 22 24
Wind_Direction_850mb
143 158 142 146 142 138 137 139 138 132 125 119 116 113 107 100 96 93 91 88 87 91 92 94 95 93 87 77 73 73 74 75 74 75 76 76 78 81 81 80 72 71 75
156 161 151 150 148 143 142 141 140 137 133 128 122 111 104 102 99 96 95 97 97 96 96 97 97 94 87 81 81 82 77 75 75 75 75 61 65 70 75 79 91 87 79
141 162 162 154 155 152 148 145 143 144 143 138 128 119 109 100 98 93 86 81 81 80 82 82 82 82 85 81 77 80 82 81 80 80 69 84 40 65 72 74 80 83 84
134 149 165 164 161 163 160 154 149 149 146 137 115 82 72 67 57 54 41 25 29 38 35 21 360 346 336 322 322 331 349 9 33 66 45 334 332 53 68 70 67 73 76
106 135 192 171 165 169 171 169 162 156 149 146 120 66 354 342 339 346 344 339 338 343 336 324 323 319 318 318 314 314 314 313 312 312 296 264 232 272 269 85 77 65 65
109 124 164 174 173 174 174 176 178 180 202 240 260 271 282 289 291 295 298 297 306 320 308 301 300 297 295 291 291 292 291 292 293 327 289 273 270 248 251 235 215 310 21
100 105 148 165 177 182 189 191 201 204 208 220 229 245 255 268 271 268 263 267 271 276 277 276 273 272 275 279 280 285 287 287 289 275 272 273 260 258 255 248 241 237 249
103 103 112 158 173 189 196 220 243 270 281 284 286 288 291 289 284 277 268 263 264 267 268 271 275 275 277 279 285 286 285 288 289 292 281 277 265 259 250 246 245 248 254
98 97 108 123 156 197 223 220 238 252 258 265 270 269 270 273 274 274 273 273 274 272 273 274 273 273 276 280 277 277 281 280 277 272 274 271 266 263 252 245 241 247 255
100 96 88 106 154 123 285 272 282 290 289 289 285 283 283 283 281 276 275 277 269 273 276 272 269 272 277 281 282 281 286 281 275 269 280 267 261 264 246 239 235 241 250
95 98 92 117 103 104 106 2 343 333 316 308 306 303 301 298 276 281 280 272 278 278 273 270 273 278 280 280 282 283 278 280 266 268 271 267 264 254 239 234 234 240 246
82 68 85 86 74 83 46 10 7 353 331 329 317 314 310 289 291 287 278 280 276 274 274 279 281 281 276 280 280 295 284 271 266 264 279 269 269 248 244 242 243 246 249
81 69 72 78 68 67 35 23 1 357 351 345 339 332 319 307 294 296 286 283 275 278 282 285 286 285 271 257 264 266 260 267 271 273 270 276 270 263 261 256 249 253 257
82 72 75 47 36 39 39 35 29 31 27 16 13 17 5 347 334 332 314 302 301 290 284 282 282 265 267 267 275 261 264 268 270 268 272 274 268 266 262 262 256 250 256
100 91 63 51 43 58 49 48 52 36 19 11 4 358 358 354 344 341 329 328 317 312 307 301 285 282 263 267 260 264 264 263 267 273 270 276 265 263 265 268 253 246 252
127 104 82 58 40 41 39 28 3 351 350 354 349 340 337 335 333 336 329 320 317 313 306 303 289 284 278 266 262 259 264 260 268 267 270 267 281 266 266 267 257 246 243
130 118 74 51 49 33 329 326 338 330 322 328 335 336 333 332 332 336 323 321 314 312 313 309 304 299 289 282 273 273 273 268 268 267 274 273 268 283 262 262 255 239 238
127 135 172 50 261 282 309 298 305 308 315 310 313 324 326 328 325 335 321 315 316 318 314 306 301 296 289 288 280 279 268 275 273 274 278 266 266 256 277 253 246 243 239
180 205 235 246 279 279 282 291 296 297 300 301 301 304 306 316 317 316 316 305 313 315 309 306 299 295 288 292 290 284 277 281 275 271 261 268 266 251 237 266 239 236 238
245 240 251 272 276 279 292 297 300 301 301 294 291 293 300 304 306 305 306 299 292 298 301 301 291 287 289 292 281 280 295 295 269 262 253 251 245 229 217 220 245 230 226
269 266 268 281 283 287 292 289 291 291 288 289 288 294 299 295 300 302 302 295 291 290 289 287 294 290 289 286 283 279 280 294 276 250 222 230 211 202 186 216 180 195 205
273 279 279 287 293 292 291 284 288 289 288 286 289 293 304 304 300 295 295 294 290 286 287 282 280 282 282 288 281 280 276 269 253 248 233 231 202 203 208 207 197 196 178
279 286 287 287 292 294 293 297 296 292 293 289 288 288 289 290 301 297 295 293 289 284 283 275 273 274 279 281 279 272 274 260 265 250 235 204 210 216 218 218 196 191 182
285 284 283 287 290 303 298 302 296 307 303 292 300 295 294 301 296 297 296 293 289 283 277 274 266 266 265 271 272 265 263 260 268 251 231 229 233 232 182 196 198 201 188
280 289 296 296 299 300 303 304 306 306 301 301 298 298 296 301 295 291 290 288 285 281 277 271 269 260 257 262 267 264 257 259 249 249 247 242 226 239 233 200 213 207 180
295 299 304 301 303 300 298 302 303 302 304 303 301 301 300 296 294 295 293 289 286 282 280 275 271 264 256 248 253 253 256 254 255 237 244 243 239 256 261 230 199 212 209